• In Hungary
  • List of Countries
  • For 7 days
  • Water Temperature
  • Satellite Maps
  • Weather Map
  • News
  • Weather Widgets
  • user-avatar
    Login

    Hourly Weather Nolka

    Today, 27 May, Sunday

    Time Temperature Precipitation Wind Pressure Humidity
    00:00 +7°C° 0 mm 3 mps 762 mmHg 62%
    01:00 +8°C° 0 mm 3 mps 762 mmHg 63%
    02:00 +8°C° 0 mm 3 mps 762 mmHg 64%
    03:00 +7°C° 0 mm 4 mps 761 mmHg 65%
    04:00 +8°C° 0 mm 4 mps 761 mmHg 65%
    05:00 +9°C° 0 mm 5 mps 761 mmHg 65%
    06:00 +12°C° 0 mm 5 mps 760 mmHg 65%
    07:00 +14°C° 0 mm 6 mps 760 mmHg 61%
    08:00 +16°C° 0 mm 6 mps 759 mmHg 56%
    09:00 +18°C° 0 mm 7 mps 758 mmHg 52%
    10:00 +20°C° 0 mm 7 mps 758 mmHg 48%
    11:00 +21°C° 0 mm 8 mps 757 mmHg 45%
    12:00 +22°C° 0 mm 8 mps 756 mmHg 41%
    13:00 +22°C° 0 mm 8 mps 756 mmHg 42%
    14:00 +22°C° 0 mm 8 mps 755 mmHg 43%
    15:00 +22°C° 0 mm 8 mps 754 mmHg 44%
    16:00 +20°C° 0.9 mm 7 mps 754 mmHg 54%
    17:00 +19°C° 0.9 mm 6 mps 753 mmHg 65%
    18:00 +16°C° 0.9 mm 6 mps 753 mmHg 76%
    19:00 +14°C° 2.6 mm 5 mps 753 mmHg 82%
    20:00 +13°C° 2.6 mm 4 mps 753 mmHg 89%
    21:00 +11°C° 2.6 mm 3 mps 753 mmHg 95%
    22:00 +11°C° 0.4 mm 3 mps 753 mmHg 92%
    23:00 +10°C° 0.4 mm 3 mps 753 mmHg 89%

    Tomorrow, 28 May, Monday

    Time Temperature Precipitation Wind Pressure Humidity
    00:00 +10°C° 0.4 mm 3 mps 754 mmHg 87%
    01:00 +7°C° 0 mm 4 mps 754 mmHg 86%
    02:00 +6°C° 0 mm 4 mps 755 mmHg 86%
    03:00 +5°C° 0 mm 4 mps 756 mmHg 86%
    04:00 +5°C° 0 mm 5 mps 756 mmHg 82%
    05:00 +6°C° 0 mm 5 mps 757 mmHg 79%
    06:00 +5°C° 0 mm 6 mps 757 mmHg 75%
    07:00 +7°C° 0 mm 6 mps 757 mmHg 66%
    08:00 +8°C° 0 mm 6 mps 758 mmHg 57%
    09:00 +9°C° 0 mm 7 mps 758 mmHg 48%
    10:00 +9°C° 0 mm 7 mps 758 mmHg 46%
    11:00 +10°C° 0 mm 7 mps 759 mmHg 44%
    12:00 +10°C° 0 mm 7 mps 759 mmHg 41%
    13:00 +11°C° 0 mm 7 mps 759 mmHg 41%
    14:00 +11°C° 0 mm 7 mps 759 mmHg 41%
    15:00 +11°C° 0 mm 6 mps 759 mmHg 41%
    16:00 +11°C° 0 mm 6 mps 759 mmHg 43%
    17:00 +10°C° 0 mm 5 mps 759 mmHg 46%
    18:00 +11°C° 0 mm 4 mps 759 mmHg 48%
    19:00 +10°C° 0 mm 3 mps 760 mmHg 54%
    20:00 +8°C° 0 mm 3 mps 760 mmHg 59%
    21:00 +6°C° 0 mm 2 mps 760 mmHg 64%
    22:00 +6°C° 0 mm 2 mps 760 mmHg 66%
    23:00 +5°C° 0 mm 2 mps 760 mmHg 68%

    Day after tomorrow, 29 May, Tuesday

    Time Temperature Precipitation Wind Pressure Humidity
    00:00 +5°C° 0 mm 2 mps 760 mmHg 70%
    01:00 +5°C° 0 mm 2 mps 760 mmHg 70%
    02:00 +5°C° 0 mm 2 mps 760 mmHg 69%
    03:00 +5°C° 0 mm 3 mps 760 mmHg 68%
    04:00 +7°C° 0 mm 3 mps 759 mmHg 67%
    05:00 +7°C° 0 mm 4 mps 759 mmHg 66%
    06:00 +8°C° 0 mm 5 mps 758 mmHg 65%
    07:00 +10°C° 0 mm 5 mps 758 mmHg 62%
    08:00 +13°C° 0 mm 6 mps 757 mmHg 60%
    09:00 +14°C° 0 mm 6 mps 757 mmHg 57%
    10:00 +15°C° 0 mm 6 mps 756 mmHg 58%
    11:00 +15°C° 0 mm 6 mps 756 mmHg 58%
    12:00 +16°C° 0 mm 7 mps 755 mmHg 59%
    13:00 +17°C° 0 mm 7 mps 755 mmHg 57%
    14:00 +17°C° 0 mm 7 mps 755 mmHg 55%
    15:00 +18°C° 0 mm 7 mps 754 mmHg 53%
    16:00 +19°C° 0 mm 6 mps 754 mmHg 57%
    17:00 +17°C° 0 mm 5 mps 754 mmHg 61%
    18:00 +17°C° 0 mm 5 mps 754 mmHg 64%
    19:00 +17°C° 0 mm 4 mps 753 mmHg 69%
    20:00 +15°C° 0 mm 2 mps 753 mmHg 74%
    21:00 +14°C° 0 mm 1 mps 753 mmHg 78%
    22:00 +14°C° 0 mm 2 mps 752 mmHg 78%
    23:00 +14°C° 0 mm 2 mps 752 mmHg 78%

    30 May, Wednesday

    Time Temperature Precipitation Wind Pressure Humidity
    00:00 +13°C° 0 mm 3 mps 751 mmHg 78%
    01:00 +12°C° 0 mm 3 mps 751 mmHg 78%
    02:00 +12°C° 0 mm 4 mps 750 mmHg 78%
    03:00 +12°C° 0 mm 4 mps 750 mmHg 78%
    04:00 +13°C° 0 mm 4 mps 749 mmHg 76%
    05:00 +13°C° 0 mm 5 mps 748 mmHg 74%
    06:00 +14°C° 0 mm 5 mps 748 mmHg 71%
    07:00 +16°C° 0 mm 6 mps 747 mmHg 66%
    08:00 +17°C° 0 mm 6 mps 747 mmHg 60%
    09:00 +20°C° 0 mm 6 mps 746 mmHg 54%
    10:00 +21°C° 0 mm 7 mps 745 mmHg 51%
    11:00 +22°C° 0 mm 7 mps 744 mmHg 48%
    12:00 +24°C° 0 mm 8 mps 743 mmHg 45%
    13:00 +24°C° 0 mm 8 mps 743 mmHg 44%
    14:00 +24°C° 0 mm 8 mps 742 mmHg 43%
    15:00 +26°C° 0 mm 8 mps 741 mmHg 43%
    16:00 +22°C° 1.6 mm 8 mps 741 mmHg 58%
    17:00 +18°C° 1.6 mm 7 mps 740 mmHg 72%
    18:00 +16°C° 1.6 mm 7 mps 740 mmHg 87%
    19:00 +14°C° 0.4 mm 6 mps 740 mmHg 87%
    20:00 +13°C° 0.4 mm 6 mps 740 mmHg 86%
    21:00 +10°C° 0.4 mm 5 mps 741 mmHg 85%
    22:00 +9°C° 0 mm 5 mps 741 mmHg 85%
    23:00 +8°C° 0 mm 5 mps 742 mmHg 85%

    31 May, Thursday

    Time Temperature Precipitation Wind Pressure Humidity
    00:00 +7°C° 0 mm 5 mps 742 mmHg 84%
    01:00 +7°C° 0 mm 5 mps 742 mmHg 83%
    02:00 +6°C° 0 mm 5 mps 743 mmHg 82%
    03:00 +5°C° 0 mm 5 mps 743 mmHg 81%
    04:00 +6°C° 0 mm 5 mps 743 mmHg 77%
    05:00 +5°C° 0 mm 6 mps 744 mmHg 73%
    06:00 +7°C° 0 mm 6 mps 744 mmHg 68%
    07:00 +7°C° 0 mm 6 mps 745 mmHg 66%
    08:00 +8°C° 0 mm 6 mps 745 mmHg 63%
    09:00 +8°C° 0 mm 6 mps 746 mmHg 60%
    10:00 +8°C° 0 mm 6 mps 746 mmHg 58%
    11:00 +9°C° 0 mm 6 mps 747 mmHg 57%
    12:00 +9°C° 0 mm 6 mps 747 mmHg 55%
    13:00 +10°C° 0 mm 5 mps 748 mmHg 52%
    14:00 +10°C° 0 mm 5 mps 748 mmHg 50%
    15:00 +12°C° 0 mm 5 mps 748 mmHg 48%
    16:00 +12°C° 0 mm 5 mps 749 mmHg 49%
    17:00 +11°C° 0 mm 4 mps 749 mmHg 50%
    18:00 +11°C° 0 mm 4 mps 749 mmHg 51%
    19:00 +10°C° 0 mm 3 mps 750 mmHg 55%
    20:00 +8°C° 0 mm 2 mps 750 mmHg 59%
    21:00 +7°C° 0 mm 2 mps 751 mmHg 63%
    22:00 +6°C° 0 mm 2 mps 751 mmHg 64%
    23:00 +6°C° 0 mm 2 mps 751 mmHg 65%

    1 June, Friday

    Time Temperature Precipitation Wind Pressure Humidity
    00:00 +5°C° 0 mm 2 mps 752 mmHg 66%
    01:00 +4°C° 0 mm 2 mps 752 mmHg 67%
    02:00 +4°C° 0 mm 2 mps 752 mmHg 69%
    03:00 +3°C° 0 mm 2 mps 752 mmHg 71%
    04:00 +4°C° 0 mm 2 mps 753 mmHg 67%
    05:00 +5°C° 0 mm 2 mps 753 mmHg 64%
    06:00 +6°C° 0 mm 2 mps 753 mmHg 60%
    07:00 +7°C° 0 mm 2 mps 753 mmHg 54%
    08:00 +9°C° 0 mm 3 mps 753 mmHg 49%
    09:00 +10°C° 0 mm 3 mps 753 mmHg 43%
    10:00 +10°C° 0 mm 3 mps 753 mmHg 43%
    11:00 +10°C° 0 mm 3 mps 753 mmHg 44%
    12:00 +10°C° 0 mm 3 mps 753 mmHg 45%
    13:00 +10°C° 0 mm 3 mps 754 mmHg 45%
    14:00 +10°C° 0 mm 3 mps 754 mmHg 46%
    15:00 +10°C° 0 mm 3 mps 754 mmHg 47%
    16:00 +10°C° 0 mm 3 mps 754 mmHg 49%
    17:00 +9°C° 0 mm 3 mps 754 mmHg 52%
    18:00 +9°C° 0 mm 3 mps 754 mmHg 54%
    19:00 +8°C° 0 mm 2 mps 754 mmHg 56%
    20:00 +7°C° 0 mm 2 mps 754 mmHg 58%
    21:00 +7°C° 0 mm 2 mps 754 mmHg 60%
    22:00 +6°C° 0 mm 2 mps 754 mmHg 62%
    23:00 +5°C° 0 mm 2 mps 754 mmHg 64%
    Show more